Flag for Canada Weather past 2 weeks in Stonewall, Manitoba, Canada

Now
59 °F

Passing clouds.


Feels Like: 57 °F
Forecast: 58 / 75 °F
Wind: 10 mph from West

Location: Winnipeg Int. Airportman.

Current Time: Jul 31, 2015 at 8:24:33 AM

Latest Report: Jul 31, 2015 at 8:00 AM


Visibility: 15 mi

Pressure: 30.01 "Hg

Humidity: 88%

Dew point: 55 °F

Location of StonewallLocation

Historic Weather in Stonewall — Graph

°F

Stonewall temperature yesterday

Maximum temperature yesterday: 79 °F (at 1:00 PM)
Minimum temperature yesterday: 55 °F (at 2:00 AM)
Average temperature yesterday: 65 °F

Past Weeks' High & Low Weather Summary

 TemperatureHumidityPressure
High88 °F (Jul 26, 3:00 PM)100% (Jul 16, 7:46 AM)29.99 "Hg (Jul 16, 7:46 AM)
Low48 °F (Jul 21, 5:00 AM)35% (Jul 25, 3:00 PM)29.28 "Hg (Jul 29, 12:00 AM)
Average69 °F77%29.76 "Hg
* Reported Jul 16 7:00 AM — Jul 31 7:00 AM, Stonewall, Weather by CustomWeather, © 2015

Note: Actual official high and low records may vary slightly from our data, if they occured in-between our weather recording intervals... More about our weather records

Advertising

Stonewall weather history for previous 24 hours

 ConditionsComfort  
Time TempWeatherWind HumidityBarometerVisibility
7:00 AM
Fri, Jul 31
57 °FPassing clouds.14 mph88%29.99 "Hg15 mi
6:00 AM55 °FPassing clouds.13 mph88%29.98 "Hg15 mi
5:00 AM55 °FPassing clouds.9 mph88%29.97 "Hg15 mi
4:00 AM55 °FClear.10 mph94%29.97 "Hg15 mi
3:00 AM57 °FClear.10 mph88%29.97 "Hg15 mi
2:00 AM57 °FClear.9 mph94%29.96 "Hg15 mi
1:00 AM55 °FPassing clouds.7 mph94%29.97 "Hg15 mi
12:00 AM59 °FPassing clouds.8 mph88%29.96 "Hg15 mi
11:49 PM
Thu, Jul 30
61 °FPassing clouds.7 mph88%29.96 "Hg15 mi
11:00 PM59 °FPassing clouds.9 mph88%29.97 "Hg15 mi
10:00 PM61 °FPassing clouds.8 mph83%29.94 "Hg15 mi
9:00 PM63 °FPassing clouds.8 mph88%29.93 "Hg15 mi
8:00 PM66 °FSprinkles. Partly sunny.10 mph78%29.92 "Hg15 mi
7:00 PM73 °FPassing clouds.14 mph65%29.91 "Hg15 mi
6:00 PM73 °FPassing clouds.10 mph69%29.90 "Hg15 mi
5:00 PM64 °FScattered showers. Partly sunny.8 mph83%29.92 "Hg15 mi
4:00 PM77 °FScattered showers. Partly sunny.16 mph51%29.90 "Hg15 mi
3:00 PM77 °FScattered showers. Partly sunny.18 mph51%29.92 "Hg15 mi
2:00 PM79 °FPassing clouds.22 mph48%29.92 "Hg15 mi
1:00 PM79 °FPassing clouds.17 mph48%29.93 "Hg15 mi
12:00 PM75 °FPassing clouds.15 mph61%29.93 "Hg15 mi
11:00 AM73 °FPassing clouds.18 mph65%29.92 "Hg15 mi
10:00 AM70 °FPassing clouds.16 mph69%29.92 "Hg15 mi
9:00 AM64 °FScattered clouds.15 mph83%29.92 "Hg15 mi
8:00 AM63 °FPartly sunny.12 mph88%29.92 "Hg15 mi
Weather by CustomWeather, © 2015

See weather overviewHow to use our weather pages